Find Starlink 37805

NORAD ID: 100290 Int'l Des: 2026-183 Owner: SPXS Country: US Constellation: starlink operational

Current View

Loading 3D Globe...

About Starlink 37805

Starlink 37805 (NORAD 100290) is a starlink constellation satellite launched Aug 11, 2026 by SPXS of US. with a mass of 575.00 kg.

Upcoming Passes

Passes for default location (London). Set your location on the main map for personalized predictions.

Altitude History

Loading altitude history...

Two-Line Element Set

1 A0290U 26183U 26253.28656138 .00258748 00000-0 16783-2 0 9999
2 A0290 53.1590 307.4238 0006520 306.3191 53.7227 15.74701730 4701
Epoch: Sep 10, 2026 • Age: 58 hours

Current Status

Altitude 346.1 km
Apogee / Perigee N/A
Velocity 7.71 km/s
Sub-Earth Point 39.65°N, 87.42°E
Launch Date Aug 11, 2026
Age 32 days
Type internet

Technical Details

Classification Payload
Mass 575.00 kg
Dry Mass 530.00 kg
Total Mass 575.00 kg
Length 0.30 m
Diameter 4.10 m
Span 29.00 m
Shape Box + pan
Manufacturer SPXS
Bus Type Starlink V2MO
Phase Status In Orbit
Owner/State SPXS/US

Most Searched